User: anonymous   Login
Location: ??????
(41.3164°N, 22.6615°E)
Time: 12:13:23
(UTC+00:00)
Language:

H-2A R/B - Orbit

View from above orbital plane
View from above orbital plane
View from above satellite
View from above satellite

Ground track
Ground track

The orbit data is extracted from the following two-line orbital elements,

1 28932U 06002B   22020.10856178  .00001575  00000-0  14759-3 0  9991
2 28932  98.3111  54.4073 0086940 217.5889 207.5232 14.92900463868011
Epoch (UTC): 20 January 2022 02:36:19
Eccentricity: 0.0086940
inclination: 98.3111°
perigee height: 528 km
apogee height: 649 km
right ascension of ascending node: 54.4073°
argument of perigee: 217.5889°
revolutions per day: 14.92900463
mean anomaly at epoch: 207.5232°
orbit number at epoch: 86801

The dashed part of the orbit path shows where the satellite is in the earth's shadow,  

DLR